Winfield, KS

12:01 AM CDT on April 28, 2017 (GMT -0500)
Strother

Weather History for KWLD - February, 2013

Change the Weather History Date:

Sunday, February 10, 2013

  Actual Average Record
Temperature  
Mean Temperature 44 °F -  
Max Temperature 55 °F 46 °F 73 °F (1999)
Min Temperature 33 °F 27 °F -17 °F (2011)
Degree Days  
Heating Degree Days 20    
Moisture  
Dew Point 33 °F    
Average Humidity 67    
Maximum Humidity 100    
Minimum Humidity 34    
Precipitation  
Precipitation 0.04 in - - ()
Sea Level Pressure  
Sea Level Pressure 29.75 in    
Wind  
Wind Speed 18 mph (WSW)    
Max Wind Speed 29 mph    
Max Gust Speed 38 mph    
Visibility 10 miles    
Events Rain    
Averages and records for this station are not official NWS values.
T = Trace of Precipitation, MM = Missing Value Source: NWS Daily Summary

Daily Weather History Graph

Daily Weather History Graph

Search for Another Location

Airport or City:

Trip Planner

Search our weather history database for the weather conditions in past years. The results will help you decide how hot, cold, wet, or windy it might be!

Date:

Astronomy

Feb. 10, 2013 Rise Set
Actual Time 7:22 AM CST 6:03 PM CST
Civil Twilight 6:55 AM CST 6:29 PM CST
Nautical Twilight 6:24 AM CST 7:00 PM CST
Astronomical Twilight 5:54 AM CST 7:30 PM CST
Moon 7:14 AM CST (2/10) 6:52 PM CST (2/10)
Length of Visible Light 11h 34m
Length of Day
10h 40m
New Moon, 0% of the Moon is Illuminated
Feb 10
New Moon
Feb 17
First Quarter
Feb 25
Full
Mar 4
Last Quarter
Mar 11
New

Hourly Weather History & Observations

Time (CST) Temp. Windchill Dew Point Humidity Pressure Visibility Wind Dir Wind Speed Gust Speed Precip Events Conditions
12:05 AM 44.6 °F 36.9 °F 42.8 °F 93% 29.69 in 3.0 mi SSE 18.4 mph - 0.00 in Rain Light Rain
12:28 AM 44.6 °F 36.6 °F 44.6 °F 100% 29.70 in 8.0 mi SSE 19.6 mph - 0.02 in Rain Light Rain
12:54 AM 45.0 °F 37.6 °F 45.0 °F 100% 29.65 in 8.0 mi SSE 17.3 mph 28.8 mph 0.02 in Rain Light Rain
1:54 AM 46.0 °F 39.0 °F 45.0 °F 96% 29.64 in 7.0 mi SSE 17.3 mph - 0.02 in   Overcast
2:54 AM 46.9 °F - 46.9 °F 100% 29.59 in 10.0 mi South 21.9 mph 27.6 mph N/A   Overcast
3:54 AM 48.0 °F - 48.0 °F 100% 29.58 in 10.0 mi South 18.4 mph 27.6 mph N/A   Overcast
4:02 AM 48.2 °F - 48.2 °F 100% 29.57 in 10.0 mi South 13.8 mph - N/A   Overcast
4:54 AM 46.9 °F - 46.0 °F 97% 29.57 in 10.0 mi South 16.1 mph - N/A   Clear
5:54 AM 46.9 °F - 43.0 °F 86% 29.59 in 10.0 mi SSW 17.3 mph - N/A   Clear
6:54 AM 44.1 °F 35.7 °F 33.1 °F 65% 29.60 in 10.0 mi SW 20.7 mph 27.6 mph N/A   Clear
7:54 AM 39.9 °F 31.1 °F 28.9 °F 65% 29.64 in 10.0 mi WSW 17.3 mph - N/A   Clear
8:54 AM 43.0 °F 35.7 °F 30.9 °F 62% 29.66 in 10.0 mi WSW 15.0 mph - N/A   Clear
9:54 AM 46.0 °F 37.8 °F 32.0 °F 58% 29.68 in 10.0 mi WSW 23.0 mph 29.9 mph N/A   Clear
10:54 AM 48.0 °F - 30.9 °F 52% 29.70 in 10.0 mi West 24.2 mph 32.2 mph N/A   Clear
11:54 AM 50.0 °F - 28.9 °F 44% 29.70 in 10.0 mi WSW 23.0 mph 36.8 mph N/A   Clear
12:54 PM 52.0 °F - 28.0 °F 40% 29.70 in 10.0 mi West 27.6 mph 36.8 mph N/A   Clear
1:54 PM 55.0 °F - 27.0 °F 34% 29.70 in 10.0 mi WSW 23.0 mph 33.4 mph N/A   Clear
2:54 PM 55.0 °F - 28.0 °F 35% 29.73 in 10.0 mi West 28.8 mph 36.8 mph N/A   Clear
3:54 PM 53.1 °F - 28.0 °F 38% 29.77 in 10.0 mi West 25.3 mph 38.0 mph N/A   Clear
4:54 PM 48.9 °F - 26.1 °F 41% 29.83 in 10.0 mi WNW 21.9 mph 36.8 mph N/A   Clear
5:54 PM 46.0 °F 39.3 °F 25.0 °F 44% 29.88 in 10.0 mi WNW 16.1 mph 28.8 mph N/A   Clear
6:54 PM 43.0 °F 37.2 °F 25.0 °F 49% 29.94 in 10.0 mi West 10.4 mph - N/A   Clear
7:54 PM 41.0 °F 34.3 °F 25.0 °F 53% 29.99 in 10.0 mi West 11.5 mph - N/A   Clear
8:54 PM 36.0 °F 31.1 °F 25.0 °F 64% 30.02 in 10.0 mi WSW 5.8 mph - N/A   Clear
9:54 PM 36.0 °F 30.3 °F 25.0 °F 64% 30.04 in 10.0 mi West 6.9 mph - N/A   Clear
10:54 PM 34.0 °F 28.0 °F 24.1 °F 67% 30.08 in 10.0 mi West 6.9 mph - N/A   Clear
11:54 PM 33.1 °F 26.9 °F 24.1 °F 70% 30.09 in 10.0 mi WNW 6.9 mph - N/A   Clear